Location: Unspecified
(0.0000°N, 0.0000°E)
Time: 19:45:06
(UTC+00:00)

Courier 1B - Pass Details

Date: 27 September 2023
Orbit: 962 x 1208 km, 28.3° (Epoch: 28 November)

Event Time Altitude Azimuth Distance (km) Brightness Sun altitude
Rises 09:48:54 0° 251° (WSW) 3,832 10.3 59.4°
Reaches altitude 10° 09:51:38 10° 256° (WSW) 2,913 9.8 60.1°
Maximum altitude 09:58:36 52° 331° (NNW) 1,370 8.9 61.8°
Drops below altitude 10° 10:05:59 10° 46° (NE) 3,076 10.5 63.7°
Sets 10:08:57 0° 50° (NE) 4,062 11.0 64.4°
